[[{"header":{"parameterUnit":"m.s-1","parameterCategory":1,"la1":30.2991,"la2":30.254,"lo1":-89.0895,"lo2":-89.0444,"dy":0.0017,"dx":0.0017,"nx":28,"ny":28,"refTime":"2024-05-31T09:00:00:Z","depth":0,"parameterNumber":2,"parameterNumberName":"U-component_of_WINDS"},"data":[0,0,0,0,0,0,0,0,0,0,0,0,0,0,0,0,0,0,0,0,0,0,0,0,0,0,0,0,0,0,0,0,0,0,0,0,0,0,0,0,0,0,0,0,0,0,0,0,0,0,0,0,0,0,0,0,0,0,-3.4844,-3.4844,0,-3.4829,-3.4829,-3.4829,-3.4737,-3.4735,-3.4733,-3.4731,-3.4717,-3.4718,-3.472,0,0,0,0,0,0,0,0,0,0,0,0,0,-3.4798,-3.4799,-3.4844,-3.4844,-3.4844,-3.4829,-3.4829,-3.4829,-3.4738,-3.4735,-3.4732,-3.473,-3.4716,-3.4718,-3.472,0,0,0,0,0,0,0,0,0,0,0,0,0,-3.4804,-3.48,-3.4844,-3.4797,-3.4792,-3.4829,-3.4829,-3.4829,-3.4738,-3.4735,-3.4732,-3.4729,-3.4716,-3.4718,-3.472,-3.4802,0,0,-3.4728,-3.4729,0,0,0,0,0,0,0,0,-3.4804,-3.4806,-3.4804,-3.48,-3.4795,-3.4782,-3.4807,-3.482,-3.4739,-3.4759,-3.4731,-3.4727,-3.4741,-3.4741,-3.4746,-3.4802,-3.4801,-3.4728,-3.473,-3.4731,-3.4732,0,0,0,0,0,0,0,-3.4803,-3.4806,-3.4838,-3.4804,-3.4799,-3.4777,-3.4774,-3.4809,-3.4769,-3.4757,-3.475,-3.475,-3.4738,-3.4744,-3.4745,-3.4801,-3.4728,-3.4731,-3.4732,-3.4733,-3.4924,-3.4928,0,0,0,0,0,0,-3.4809,-3.4806,-3.4839,-3.4838,-3.4791,-3.4781,-3.4778,-3.4789,-3.4768,-3.4762,-3.4752,-3.4745,-3.4741,-3.4742,-3.4744,-3.4838,-3.4731,-3.4733,-3.4735,-3.4921,-3.4925,-3.4929,0,0,0,0,0,0,-3.4809,-3.4813,-3.4839,-3.482,-3.4822,-3.4785,-3.4799,-3.4791,-3.4796,-3.4765,-3.4757,-3.4765,-3.4738,-3.474,-3.4789,-3.4836,-3.4734,-3.4737,-3.4917,-3.4922,-3.4927,-3.5028,0,0,0,0,0,0,-3.4808,-3.4813,-3.4843,-3.4822,-3.4823,-3.4884,-3.4802,-3.4793,-3.48,-3.4791,-3.4775,-3.4769,-3.4736,-3.4785,-3.4791,-3.4838,-3.4739,-3.4912,-3.4919,-3.4925,-3.502,-3.5036,-3.505,0,0,0,0,0,-3.4806,-3.4872,-3.4845,-3.4849,-3.486,-3.4886,-3.4887,-3.4848,-3.4805,-3.4835,-3.4815,-3.4769,-3.4831,-3.4791,-3.4797,-3.4845,-3.4909,-3.4917,-3.4925,-3.5013,-3.5033,-3.5049,0,0,0,0,0,0,-3.49,-3.4868,-3.4838,-3.4898,-3.4896,-3.4871,-3.4907,-3.4869,-3.4879,-3.487,-3.4821,-3.4818,-3.4874,-3.4865,-3.4821,-3.4924,-3.4862,-3.4872,-3.4927,-3.4946,-3.496,-3.496,-3.4741,0,0,0,0,0,-3.4928,-3.4952,-3.4923,-3.4979,-3.498,-3.4944,-3.4954,-3.4924,-3.492,-3.4918,-3.4902,-3.49,-3.4919,-3.4932,-3.4948,-3.5019,-3.5015,-3.5056,-3.5071,-3.5083,-3.5091,-3.5129,-3.5147,-3.4955,-3.4955,-3.4955,0,0,-3.4985,-3.4971,-3.4989,-3.4998,-3.4992,-3.5019,-3.4944,-3.4975,-3.4994,-3.4923,-3.4967,-3.4956,-3.4951,-3.5011,-3.5037,-3.5005,-3.5143,-3.5093,-3.5103,-3.5104,-3.5139,-3.5157,-3.5173,-3.4961,-3.496,-3.4959,0,0,-3.5102,-3.5094,-3.514,-3.5137,-3.513,-3.5106,-3.5118,-3.5099,-3.5089,-3.5132,-3.508,-3.5104,-3.5137,-3.5135,-3.5139,-3.526,-3.5218,-3.5267,-3.5343,-3.5381,-3.5396,-3.5409,-3.5451,-3.5467,-3.5276,-3.5276,-3.5276,0,-3.5174,-3.5211,-3.5169,-3.5203,-3.5209,-3.5148,-3.5194,-3.5193,-3.5192,-3.5198,-3.5163,-3.5204,-3.5197,-3.5256,-3.5286,-3.5291,-3.5303,-3.5267,-3.5397,-3.541,-3.5421,-3.5461,-3.5478,-3.5282,-3.5281,-3.5281,-3.528,0,-3.53,-3.5327,-3.5365,-3.5365,-3.5376,-3.5417,-3.5382,-3.5398,-3.5369,-3.535,-3.5396,-3.5385,-3.5397,-3.541,-3.5381,-3.5466,-3.5447,-3.5405,-3.5342,-3.5446,-3.5483,-3.5498,-3.529,-3.5288,-3.5286,-3.5285,0,0,-3.5472,-3.5451,-3.5465,-3.5465,-3.5454,-3.5475,-3.5514,-3.5526,-3.5541,-3.5544,-3.5575,-3.5607,-3.5569,-3.5573,-3.5544,-3.5578,-3.5674,-3.5532,-3.5531,-3.5558,-3.5767,-3.5797,-3.5815,-3.5648,-3.5651,-3.5653,-3.5767,0,-3.5584,-3.5648,-3.5612,-3.5682,-3.5706,-3.565,-3.5684,-3.5682,-3.5666,-3.5686,-3.5669,-3.5692,-3.564,-3.5642,-3.5673,-3.5656,-3.5715,-3.5647,-3.5677,-3.5678,-3.5677,-3.5835,-3.5866,-3.5974,-3.5782,-3.5784,-3.5786,0,-3.5721,-3.573,-3.5802,-3.5787,-3.5797,-3.5828,-3.5837,-3.5857,-3.5854,-3.5841,-3.5847,-3.5811,-3.585,-3.579,-3.5842,-3.5797,-3.5808,-3.5802,-3.5805,-3.5804,-3.5736,-3.5837,-3.6008,-3.6024,-3.5808,-3.5806,-3.5805,0,-3.5838,-3.5868,-3.5915,-3.5917,-3.5902,-3.5925,-3.5921,-3.5915,-3.5925,-3.5934,-3.5941,-3.5955,-3.5962,-3.5975,-3.5944,-3.5903,-3.6001,-3.5938,-3.5991,-3.5992,-3.6012,-3.601,-3.6185,-3.6022,-3.6022,-3.6022,-3.6022,0,-3.5965,-3.6011,-3.5967,-3.5996,-3.6047,-3.6007,-3.6059,-3.6048,-3.6044,-3.607,-3.6024,-3.605,-3.6008,-3.6031,-3.6008,-3.6055,-3.6059,-3.605,-3.6042,-3.6052,-3.6054,-3.6057,-3.6048,-3.6026,-3.6025,-3.6024,-3.6024,0,-3.6102,-3.6075,-3.6122,-3.6106,-3.6103,-3.6141,-3.6126,-3.6153,-3.6136,-3.617,-3.6176,-3.6148,-3.6173,-3.6144,-3.6166,-3.615,-3.6215,-3.6197,-3.6215,-3.6209,-3.6263,-3.6258,-3.6444,-3.6467,-3.6292,-3.6294,-3.6295,0,-3.6184,-3.6218,-3.6205,-3.6219,-3.6217,-3.6241,-3.6252,-3.6216,-3.6229,-3.623,-3.6257,-3.6278,-3.6292,-3.6334,-3.6316,-3.6333,-3.6315,-3.6379,-3.6317,-3.6327,-3.6314,-3.6312,-3.6315,-3.6391,-3.6393,-3.6395,-3.6396,0,-3.6331,-3.6316,-3.6333,-3.6346,-3.6361,-3.6369,-3.6374,-3.6389,-3.6352,-3.637,-3.6394,-3.6405,-3.6429,-3.645,-3.6463,-3.6458,-3.6422,-3.6417,-3.643,-3.6439,-3.6447,-3.6442,-3.6248,-3.6412,-3.641,-3.6409,-3.6408,-3.6408,-3.6441,-3.6469,-3.6465,-3.6486,-3.6487,-3.6493,-3.6518,-3.6504,-3.6524,-3.6539,-3.6518,-3.6548,-3.6547,-3.6561,-3.6561,-3.6585,-3.6558,-3.6577,-3.6581,-3.6586,-3.6593,-3.6446,-3.6588,-3.6587,-3.6587,-3.6587,-3.6586,0,-3.6584,-3.658,-3.66,-3.6609,-3.6626,-3.6591,-3.6596,-3.6613,-3.664,-3.6642,-3.6658,-3.6687,-3.6708,-3.6694,-3.6712,-3.6734,-3.6718,-3.674,-3.6737,-3.6737,-3.6618,-3.6604,-3.6753,-3.6753,-3.6753,-3.6753,-3.6753,-3.6753,-3.666,-3.6706,-3.6692,-3.6738,-3.6734,-3.6763,-3.6769,-3.6775,-3.6777,-3.6811,-3.6828,-3.6819,-3.6815,-3.6833,-3.6852,-3.6847,-3.6856,-3.6884,-3.6873,-3.6761,-3.6745,-3.6729,-3.6716,-3.6886,-3.6886,-3.6989,-3.699,-3.6991]},{"header":{"parameterUnit":"m.s-1","parameterCategory":1,"la1":30.2991,"la2":30.254,"lo1":-89.0895,"lo2":-89.0444,"dy":0.0017,"dx":0.0017,"nx":28,"ny":28,"refTime":"2024-05-31T09:00:00:Z","depth":0,"parameterNumber":3,"parameterNumberName":"V-component_of_WINDS"},"data":[0,0,0,0,0,0,0,0,0,0,0,0,0,0,0,0,0,0,0,0,0,0,0,0,0,0,0,0,0,0,0,0,0,0,0,0,0,0,0,0,0,0,0,0,0,0,0,0,0,0,0,0,0,0,0,0,0,0,-0.5095,-0.5097,0,-0.5259,-0.5261,-0.5262,-0.5413,-0.5414,-0.5416,-0.5418,-0.5575,-0.5577,-0.558,0,0,0,0,0,0,0,0,0,0,0,0,0,-0.4902,-0.4905,-0.5095,-0.5097,-0.5099,-0.5258,-0.5261,-0.5263,-0.5412,-0.5414,-0.5417,-0.5419,-0.5574,-0.5577,-0.558,0,0,0,0,0,0,0,0,0,0,0,0,0,-0.5017,-0.4906,-0.5095,-0.5193,-0.5204,-0.5258,-0.5261,-0.5263,-0.5412,-0.5415,-0.5417,-0.542,-0.5573,-0.5577,-0.558,-0.5547,0,0,-0.5592,-0.5593,0,0,0,0,0,0,0,0,-0.501,-0.5024,-0.5177,-0.5187,-0.5198,-0.5318,-0.525,-0.5358,-0.5411,-0.5332,-0.5418,-0.5421,-0.5487,-0.5498,-0.5522,-0.5555,-0.5561,-0.5592,-0.5594,-0.5596,-0.5597,0,0,0,0,0,0,0,-0.5002,-0.5018,-0.516,-0.5179,-0.5192,-0.5226,-0.5245,-0.5271,-0.5391,-0.5339,-0.5351,-0.5369,-0.5493,-0.5518,-0.5527,-0.5564,-0.5592,-0.5595,-0.5597,-0.5599,-0.5575,-0.5572,0,0,0,0,0,0,-0.4981,-0.501,-0.5155,-0.5165,-0.511,-0.5227,-0.5249,-0.5277,-0.5392,-0.5412,-0.5366,-0.5375,-0.551,-0.5522,-0.5533,-0.5501,-0.5596,-0.5599,-0.5601,-0.5578,-0.5574,-0.5571,0,0,0,0,0,0,-0.4976,-0.4992,-0.5148,-0.5091,-0.5113,-0.5227,-0.5258,-0.5279,-0.5304,-0.5412,-0.5433,-0.537,-0.5513,-0.5528,-0.5543,-0.5508,-0.5601,-0.5604,-0.5581,-0.5577,-0.5573,-0.5436,0,0,0,0,0,0,-0.497,-0.499,-0.4981,-0.5089,-0.5116,-0.5158,-0.5256,-0.528,-0.5311,-0.5324,-0.5422,-0.544,-0.5516,-0.5537,-0.5546,-0.5515,-0.5607,-0.5585,-0.5579,-0.5574,-0.5444,-0.5428,-0.5414,0,0,0,0,0,-0.4962,-0.4934,-0.498,-0.4996,-0.5108,-0.5156,-0.5171,-0.5262,-0.5308,-0.5298,-0.5367,-0.5437,-0.551,-0.5537,-0.5549,-0.5518,-0.5587,-0.5581,-0.5575,-0.5451,-0.5431,-0.5414,0,0,0,0,0,0,-0.4816,-0.495,-0.5002,-0.5009,-0.507,-0.5181,-0.5173,-0.5238,-0.5285,-0.5295,-0.5403,-0.5423,-0.5425,-0.5474,-0.5501,-0.5491,-0.5558,-0.5554,-0.546,-0.5442,-0.5427,-0.5415,-0.561,0,0,0,0,0,-0.4784,-0.4816,-0.4931,-0.4925,-0.4954,-0.5057,-0.5081,-0.5147,-0.5213,-0.5239,-0.5309,-0.5368,-0.5404,-0.5426,-0.5465,-0.5452,-0.5474,-0.5436,-0.5421,-0.5408,-0.5402,-0.5397,-0.5381,-0.555,-0.555,-0.5551,0,0,-0.4719,-0.4797,-0.481,-0.4898,-0.4953,-0.4979,-0.5078,-0.5102,-0.5122,-0.5241,-0.5261,-0.5314,-0.5386,-0.5387,-0.539,-0.5427,-0.536,-0.54,-0.5388,-0.5391,-0.5389,-0.5372,-0.5358,-0.5546,-0.5547,-0.5548,0,0,-0.4615,-0.4678,-0.468,-0.4734,-0.4817,-0.4886,-0.4885,-0.4987,-0.5028,-0.505,-0.5139,-0.5162,-0.5223,-0.527,-0.5302,-0.5213,-0.5278,-0.5223,-0.5142,-0.5136,-0.5122,-0.5111,-0.5078,-0.5065,-0.5217,-0.5217,-0.5217,0,-0.4523,-0.4571,-0.4672,-0.4691,-0.4726,-0.4838,-0.4838,-0.4884,-0.4974,-0.4993,-0.5033,-0.5111,-0.5168,-0.518,-0.5158,-0.5181,-0.5182,-0.5212,-0.5117,-0.5106,-0.5097,-0.5066,-0.5054,-0.521,-0.521,-0.5211,-0.5212,0,-0.4453,-0.4484,-0.4475,-0.4562,-0.4596,-0.4605,-0.4704,-0.4725,-0.4786,-0.4849,-0.4867,-0.4939,-0.4995,-0.5002,-0.5061,-0.5022,-0.5042,-0.5097,-0.5167,-0.5072,-0.5045,-0.5034,-0.5199,-0.5202,-0.5204,-0.5206,0,0,-0.4262,-0.4405,-0.44,-0.444,-0.4539,-0.4563,-0.4575,-0.4633,-0.4647,-0.4704,-0.4716,-0.4764,-0.4816,-0.4852,-0.4917,-0.4911,-0.4833,-0.4968,-0.4971,-0.4939,-0.4792,-0.4749,-0.4734,-0.4877,-0.4875,-0.4874,-0.4785,0,-0.4174,-0.4208,-0.4298,-0.4302,-0.433,-0.4436,-0.4446,-0.4505,-0.4564,-0.4594,-0.4657,-0.4689,-0.4756,-0.4779,-0.4777,-0.4843,-0.4805,-0.4851,-0.4886,-0.4886,-0.4864,-0.472,-0.4675,-0.4588,-0.4776,-0.4774,-0.4773,0,-0.4076,-0.4129,-0.4137,-0.4234,-0.4249,-0.4257,-0.4316,-0.4344,-0.4411,-0.4454,-0.4493,-0.4566,-0.4581,-0.4645,-0.4666,-0.4695,-0.4714,-0.4748,-0.4747,-0.4753,-0.4823,-0.4721,-0.4563,-0.4549,-0.4757,-0.4758,-0.476,0,-0.3934,-0.4008,-0.4022,-0.4053,-0.4166,-0.4169,-0.4215,-0.4287,-0.4314,-0.4364,-0.4382,-0.4431,-0.4457,-0.4492,-0.4574,-0.4614,-0.4584,-0.4656,-0.4617,-0.4615,-0.4606,-0.4605,-0.4448,-0.4619,-0.4619,-0.4619,-0.462,0,-0.3826,-0.3826,-0.396,-0.3968,-0.3971,-0.4072,-0.407,-0.4126,-0.4188,-0.4206,-0.4298,-0.4313,-0.4421,-0.4446,-0.451,-0.4516,-0.4527,-0.4559,-0.4576,-0.4551,-0.4546,-0.4565,-0.4572,-0.4616,-0.4617,-0.4617,-0.4618,0,-0.3669,-0.3759,-0.3781,-0.3886,-0.3912,-0.3909,-0.3997,-0.4007,-0.4071,-0.4093,-0.4103,-0.4202,-0.4237,-0.4322,-0.4378,-0.4421,-0.4409,-0.444,-0.4387,-0.4397,-0.4353,-0.4356,-0.4201,-0.4185,-0.4366,-0.4364,-0.4363,0,-0.3594,-0.3597,-0.3703,-0.3724,-0.3767,-0.3798,-0.3828,-0.3926,-0.3952,-0.4028,-0.4028,-0.4071,-0.411,-0.4159,-0.4234,-0.4276,-0.4309,-0.4252,-0.4316,-0.4289,-0.4306,-0.4305,-0.4305,-0.4237,-0.4235,-0.4233,-0.4231,0,-0.3451,-0.3495,-0.3536,-0.3591,-0.3624,-0.3671,-0.3723,-0.3733,-0.3843,-0.3867,-0.3905,-0.3936,-0.3994,-0.4033,-0.4087,-0.4131,-0.4197,-0.421,-0.4203,-0.4177,-0.4146,-0.4161,-0.4347,-0.4213,-0.4215,-0.4216,-0.4217,-0.4218,-0.3333,-0.334,-0.3415,-0.3456,-0.3506,-0.3552,-0.3567,-0.3632,-0.3667,-0.3724,-0.3779,-0.381,-0.3875,-0.3955,-0.3994,-0.4017,-0.4052,-0.4042,-0.404,-0.4035,-0.4023,-0.4142,-0.4027,-0.4028,-0.4029,-0.4029,-0.403,0,-0.3193,-0.3247,-0.3284,-0.3355,-0.3386,-0.345,-0.351,-0.353,-0.3558,-0.3615,-0.3652,-0.3694,-0.3732,-0.3809,-0.3853,-0.3857,-0.3888,-0.3865,-0.3865,-0.3874,-0.3991,-0.3992,-0.3839,-0.3839,-0.3839,-0.3839,-0.3839,-0.3839,-0.3125,-0.314,-0.3192,-0.3231,-0.3284,-0.3318,-0.3347,-0.3388,-0.3434,-0.3477,-0.3511,-0.3562,-0.3625,-0.3675,-0.3711,-0.3733,-0.3744,-0.371,-0.374,-0.3848,-0.3866,-0.3883,-0.3885,-0.3712,-0.3712,-0.3622,-0.3621,-0.3621]}]]